Regional Weather Roundup
Issued by NWS

Home | Current Version | Previous Version | Text Only | Print | Product List | Glossary Off
Versions: 1 2 3 4 5 6 7 8 9 10 11 12 13 14 15 16 17 18 19 20 21 22 23 24 25 26 27 28 29 30 31 32 33 34 35 36 37 38 39 40 41 42 43 44 45 46 47 48 49 50

722
ASUS44 KMEG 071910
RWRTN
TENNESSEE HOURLY STATE WEATHER ROUNDUP
NATIONAL WEATHER SERVICE MEMPHIS TN
100 PM CST SUN FEB 07 2016

TNZ002-004-019-021-049-052-054-088>092-072000-
WEST TENNESSEE

CITY           SKY/WX    TMP DP  RH WIND       PRES   REMARKS
MEMPHIS INTL   MOSUNNY   59  28  30 W13G26    30.10F
NWS MEMPHIS      N/A     56 N/A N/A MISG        N/A
JACKSON        SUNNY     58  25  28 W16G23    30.08F
DYERSBURG      SUNNY     57  27  30 SW18G24   30.08F
UNION CITY     SUNNY     55  27  33 SW16      30.04F
PARIS          SUNNY     54  25  32 SW16      30.05F
$$

TNZ008-025-027-028-033-062-065-066-072000-
NORTH MIDDLE TENNESSEE

CITY           SKY/WX    TMP DP  RH WIND       PRES   REMARKS
NASHVILLE      PTSUNNY   56  17  21 SW10      30.07F
CLARKSVILLE    SUNNY     54  21  27 SW14G26   30.05F
SMYRNA         SUNNY     56  21  25 SW8       30.09F
COOKEVILLE     SUNNY     52  27  37 SW8       30.06F
CROSSVILLE     SUNNY     49  19  30 CALM      30.05F
$$

TNZ061-075-076-078-094-096-097-072000-
SOUTH MIDDLE TENNESSEE

CITY           SKY/WX    TMP DP  RH WIND       PRES   REMARKS
FAYETTEVILLE   SUNNY     54  23  30 SW10      30.09F
TULLAHOMA      SUNNY     52  18  25 S8        30.09F
WINCHESTER     SUNNY     52  23  32 VRB5      30.09F
MCMINNVILLE    SUNNY     52  25  35 S7        30.08F
COLUMBIA       SUNNY     55  23  28 S9        30.07F
SHELBYVILLE    SUNNY     55  23  28 S7        30.09F
$$

TNZ017-018-042-046-047-072000-
NORTHEAST TENNESSEE

CITY           SKY/WX    TMP DP  RH WIND       PRES   REMARKS
TRI CITIES     MOSUNNY   47  24  40 SE3       30.04F
$$

TNZ012-013-036-069-073-074-072000-
CENTRAL EAST TENNESSEE

CITY           SKY/WX    TMP DP  RH WIND       PRES   REMARKS
KNOXVILLE      MOSUNNY   50  23  34 W3        30.06F
OAK RIDGE      SUNNY     53  23  31 CALM      30.07F
GATLINBURG     CLEAR     50  21  32 CALM      30.06F
MORRISTOWN     CLEAR     48  23  37 VRB5      30.05F
$$

TNZ083-085-099-072000-
SOUTHEAST TENNESSEE

CITY           SKY/WX    TMP DP  RH WIND       PRES   REMARKS
CHATTANOOGA    MOSUNNY   53  21  28 SW3       30.08F
$$

SKY/WX REPORTED AS FAIR MEANS FEW OR NO CLOUDS BELOW
12 THOUSAND FEET.





USA.gov is the U.S. government's official web portal to all federal, state and local government web resources and services.